KHV225 WSSS-VDTI

Flight info

Callsign KHV225
Flight time 1h 29m
Altitude 32000
Route VMR6A VMR L642 EGOLO DCT IPRIX/K0863F340 M753 BITOD/K0863F350 M755 KISAN KISAN1D
Aircraft A321/M-SDE3FGHIRWY/LB1

Departure

Time 2026-05-06 23:34
Airport Singapore Changi Airport (WSSS)

Arrival

Time 2026-05-07 01:03
Airport Techo International Airport (VDTI)
Time Latitude Longitude Altitude Speed Heading
2026-05-06 23:11 1.34057 103.98589 27 ft 0 kts 292°
2026-05-06 23:26 1.34055 103.98595 30 ft 2 kts 292°
2026-05-06 23:26 1.34048 103.98616 29 ft 4 kts 263°
2026-05-06 23:26 1.34059 103.98636 27 ft 4 kts 209°
2026-05-06 23:27 1.34067 103.98641 29 ft 0 kts 202°
2026-05-06 23:29 1.34059 103.98638 27 ft 4 kts 202°
2026-05-06 23:29 1.34019 103.98621 25 ft 9 kts 202°
2026-05-06 23:29 1.33951 103.98593 25 ft 12 kts 203°
2026-05-06 23:29 1.33862 103.98555 25 ft 15 kts 203°
2026-05-06 23:30 1.33773 103.98520 25 ft 8 kts 185°
2026-05-06 23:30 1.33733 103.98562 26 ft 10 kts 114°
2026-05-06 23:30 1.33693 103.98629 27 ft 11 kts 148°
2026-05-06 23:30 1.33612 103.98613 28 ft 15 kts 202°
2026-05-06 23:31 1.33501 103.98567 29 ft 19 kts 203°
2026-05-06 23:31 1.33379 103.98515 28 ft 20 kts 202°
2026-05-06 23:31 1.33249 103.98461 27 ft 22 kts 202°
2026-05-06 23:31 1.33115 103.98404 28 ft 17 kts 203°
2026-05-06 23:32 1.33056 103.98433 27 ft 9 kts 113°
2026-05-06 23:32 1.33032 103.98493 29 ft 9 kts 112°
2026-05-06 23:32 1.33024 103.98553 29 ft 9 kts 58°
2026-05-06 23:32 1.33066 103.98579 29 ft 0 kts 24°
2026-05-06 23:33 1.33228 103.98648 28 ft 63 kts 22°
2026-05-06 23:33 1.33849 103.98910 28 ft 128 kts 23°
2026-05-06 23:33 1.34847 103.99329 45 ft 178 kts 22°
2026-05-06 23:34 1.35953 103.99795 772 ft 172 kts 23°
2026-05-06 23:34 1.37048 104.00266 1534 ft 170 kts 23°
2026-05-06 23:34 1.38140 104.00716 2270 ft 169 kts 21°
2026-05-06 23:34 1.39258 104.01166 2753 ft 181 kts 22°
2026-05-06 23:35 1.40468 104.01669 3000 ft 200 kts 23°
2026-05-06 23:35 1.41812 104.02240 3022 ft 220 kts 23°
2026-05-06 23:35 1.43292 104.02871 3135 ft 242 kts 24°
2026-05-06 23:35 1.44922 104.03567 3301 ft 265 kts 23°
2026-05-06 23:36 1.46650 104.04304 3770 ft 273 kts 24°
2026-05-06 23:36 1.48446 104.04952 4369 ft 277 kts
2026-05-06 23:36 1.50360 104.04791 4947 ft 280 kts 338°
2026-05-06 23:36 1.52106 104.03916 5543 ft 282 kts 331°
2026-05-06 23:37 1.53251 104.03293 5955 ft 283 kts 331°
2026-05-06 23:37 1.54990 104.02342 6529 ft 286 kts 331°
2026-05-06 23:37 1.57342 104.01058 7280 ft 289 kts 331°
2026-05-06 23:37 1.59094 104.00107 7837 ft 291 kts 332°
2026-05-06 23:38 1.60885 103.99141 8397 ft 294 kts 332°
2026-05-06 23:38 1.62104 103.98484 8771 ft 295 kts 332°
2026-05-06 23:38 1.64511 103.97183 9490 ft 299 kts 332°
2026-05-06 23:38 1.65752 103.96515 9851 ft 300 kts 332°
2026-05-06 23:39 1.67609 103.95517 10213 ft 309 kts 333°
2026-05-06 23:39 1.69558 103.94468 10327 ft 326 kts 332°
2026-05-06 23:39 1.71601 103.93367 10447 ft 342 kts 332°
2026-05-06 23:39 1.73748 103.92228 10569 ft 356 kts 336°
2026-05-06 23:40 1.76078 103.91385 10707 ft 367 kts 347°
2026-05-06 23:40 1.78616 103.91007 11044 ft 371 kts 358°
2026-05-06 23:40 1.81199 103.90851 11464 ft 373 kts 358°
2026-05-06 23:40 1.83803 103.90687 11912 ft 376 kts 358°
2026-05-06 23:41 1.86418 103.90517 12354 ft 378 kts 358°
2026-05-06 23:41 1.89052 103.90345 12782 ft 380 kts 358°
2026-05-06 23:41 1.91702 103.90172 13204 ft 382 kts 358°
2026-05-06 23:41 1.94371 103.89999 13616 ft 385 kts 358°
2026-05-06 23:42 1.97049 103.89827 13976 ft 387 kts 358°
2026-05-06 23:42 1.99744 103.89654 14330 ft 389 kts 358°
2026-05-06 23:42 2.02448 103.89480 14689 ft 390 kts 358°
2026-05-06 23:42 2.05166 103.89304 15044 ft 392 kts 358°
2026-05-06 23:43 2.07895 103.89130 15410 ft 394 kts 358°
2026-05-06 23:43 2.10640 103.88957 15765 ft 396 kts 358°
2026-05-06 23:43 2.13400 103.88786 16114 ft 398 kts 358°
2026-05-06 23:43 2.16171 103.88614 16460 ft 400 kts 358°
2026-05-06 23:44 2.18959 103.88438 16800 ft 402 kts 358°
2026-05-06 23:44 2.21755 103.88259 17127 ft 404 kts 358°
2026-05-06 23:44 2.24534 103.88080 17446 ft 406 kts 358°
2026-05-06 23:44 2.27358 103.87899 17759 ft 408 kts 358°
2026-05-06 23:45 2.30197 103.87716 18072 ft 410 kts 358°
2026-05-06 23:45 2.33046 103.87533 18349 ft 411 kts 358°
2026-05-06 23:45 2.35911 103.87350 18618 ft 413 kts 358°
2026-05-06 23:45 2.38786 103.87254 18873 ft 414 kts
2026-05-06 23:46 2.41645 103.87578 19127 ft 414 kts 10°
2026-05-06 23:46 2.44502 103.88007 19378 ft 416 kts 10°
2026-05-06 23:46 2.47368 103.88439 19632 ft 418 kts 10°
2026-05-06 23:46 2.50249 103.88874 19887 ft 419 kts 10°
2026-05-06 23:47 2.53146 103.89311 20139 ft 421 kts 10°
2026-05-06 23:47 2.56050 103.89750 20393 ft 423 kts 10°
2026-05-06 23:47 2.58975 103.90191 20641 ft 425 kts 10°
2026-05-06 23:47 2.61903 103.90629 20892 ft 426 kts 10°
2026-05-06 23:48 2.64844 103.91066 21133 ft 428 kts 10°
2026-05-06 23:48 2.67802 103.91508 21382 ft 430 kts 11°
2026-05-06 23:48 2.70768 103.91951 21624 ft 432 kts 11°
2026-05-06 23:48 2.73743 103.92396 21870 ft 433 kts 11°
2026-05-06 23:49 2.76730 103.92842 22106 ft 435 kts 11°
2026-05-06 23:49 2.79727 103.93291 22341 ft 437 kts 11°
2026-05-06 23:49 2.82705 103.93736 22578 ft 438 kts 11°
2026-05-06 23:49 2.85723 103.94188 22804 ft 440 kts 11°
2026-05-06 23:50 2.88761 103.94644 23023 ft 441 kts 11°
2026-05-06 23:50 2.94865 103.95567 23448 ft 445 kts 11°
2026-05-06 23:50 2.97928 103.96034 23620 ft 446 kts 11°
2026-05-06 23:51 3.00999 103.96501 23796 ft 447 kts 11°
2026-05-06 23:51 3.04080 103.96968 23975 ft 449 kts 11°
2026-05-06 23:51 3.07172 103.97437 24153 ft 450 kts 11°
2026-05-06 23:51 3.10269 103.97908 24333 ft 451 kts 11°
2026-05-06 23:52 3.13375 103.98382 24514 ft 452 kts 11°
2026-05-06 23:52 3.16489 103.98858 24694 ft 453 kts 11°
2026-05-06 23:52 3.19612 103.99335 24873 ft 455 kts 10°
2026-05-06 23:52 3.22742 103.99812 25054 ft 456 kts 10°
2026-05-06 23:53 3.25881 104.00290 25238 ft 457 kts 10°
2026-05-06 23:53 3.29029 104.00768 25414 ft 458 kts 10°
2026-05-06 23:53 3.32189 104.01236 25585 ft 460 kts
2026-05-06 23:53 3.35394 104.01422 25756 ft 462 kts
2026-05-06 23:54 3.38616 104.01528 25932 ft 464 kts
2026-05-06 23:54 3.41846 104.01630 26104 ft 465 kts
2026-05-06 23:54 3.45084 104.01730 26281 ft 466 kts
2026-05-06 23:54 3.48330 104.01830 26456 ft 467 kts
2026-05-06 23:55 3.51582 104.01931 26624 ft 468 kts
2026-05-06 23:55 3.54853 104.02034 26800 ft 470 kts
2026-05-06 23:55 3.58078 104.02136 26966 ft 471 kts
2026-05-06 23:55 3.61401 104.02244 27130 ft 472 kts
2026-05-06 23:56 3.64686 104.02352 27286 ft 473 kts
2026-05-06 23:56 3.67938 104.02458 27431 ft 474 kts
2026-05-06 23:56 3.71280 104.02568 27585 ft 475 kts
2026-05-06 23:56 3.74542 104.02675 27732 ft 476 kts
2026-05-06 23:57 3.77855 104.02782 27877 ft 476 kts
2026-05-06 23:57 3.81174 104.02888 28012 ft 477 kts
2026-05-06 23:57 3.84495 104.02992 28136 ft 478 kts
2026-05-06 23:57 3.87824 104.03099 28261 ft 479 kts
2026-05-06 23:58 3.91156 104.03207 28389 ft 480 kts
2026-05-06 23:58 3.94498 104.03315 28514 ft 480 kts
2026-05-06 23:58 3.97843 104.03421 28661 ft 480 kts
2026-05-06 23:58 4.01180 104.03526 28810 ft 480 kts
2026-05-06 23:59 4.04517 104.03631 28963 ft 480 kts
2026-05-06 23:59 4.07852 104.03737 29118 ft 479 kts
2026-05-06 23:59 4.11185 104.03844 29275 ft 479 kts
2026-05-06 23:59 4.14514 104.03953 29434 ft 479 kts
2026-05-07 00:00 4.17840 104.04064 29589 ft 478 kts
2026-05-07 00:00 4.21166 104.04172 29752 ft 478 kts
2026-05-07 00:00 4.24487 104.04279 29910 ft 478 kts
2026-05-07 00:00 4.27808 104.04386 30044 ft 477 kts
2026-05-07 00:01 4.31125 104.04493 30178 ft 477 kts
2026-05-07 00:01 4.34443 104.04598 30307 ft 477 kts
2026-05-07 00:01 4.37763 104.04701 30440 ft 476 kts
2026-05-07 00:01 4.41073 104.04805 30573 ft 476 kts
2026-05-07 00:02 4.44383 104.04910 30705 ft 476 kts
2026-05-07 00:02 4.47689 104.05016 30863 ft 475 kts
2026-05-07 00:02 4.50991 104.05121 31009 ft 474 kts
2026-05-07 00:02 4.54287 104.05228 31147 ft 474 kts
2026-05-07 00:03 4.57537 104.05334 31277 ft 473 kts
2026-05-07 00:03 4.60829 104.05444 31414 ft 473 kts
2026-05-07 00:03 4.64115 104.05553 31547 ft 473 kts
2026-05-07 00:03 4.67403 104.05661 31683 ft 472 kts
2026-05-07 00:04 4.70686 104.05766 31816 ft 472 kts
2026-05-07 00:04 4.73969 104.05869 31954 ft 472 kts
2026-05-07 00:04 4.77251 104.05971 32093 ft 471 kts
2026-05-07 00:04 4.80529 104.06074 32229 ft 471 kts
2026-05-07 00:05 4.83803 104.06178 32380 ft 470 kts
2026-05-07 00:05 4.87075 104.06282 32530 ft 470 kts
2026-05-07 00:05 4.90341 104.06388 32664 ft 469 kts
2026-05-07 00:05 4.93604 104.06495 32797 ft 469 kts
2026-05-07 00:06 4.96866 104.06603 32933 ft 468 kts
2026-05-07 00:06 5.00122 104.06709 33063 ft 468 kts
2026-05-07 00:06 5.03378 104.06814 33192 ft 468 kts
2026-05-07 00:06 5.06630 104.06918 33325 ft 468 kts
2026-05-07 00:07 5.09884 104.07022 33455 ft 467 kts
2026-05-07 00:07 5.13131 104.07128 33585 ft 467 kts
2026-05-07 00:07 5.16379 104.07232 33715 ft 467 kts
2026-05-07 00:07 5.19625 104.07337 33835 ft 467 kts
2026-05-07 00:08 5.22873 104.07444 33949 ft 467 kts
2026-05-07 00:08 5.26117 104.07548 34060 ft 466 kts
2026-05-07 00:08 5.29360 104.07651 34168 ft 466 kts
2026-05-07 00:08 5.32598 104.07752 34281 ft 466 kts
2026-05-07 00:09 5.35842 104.07853 34395 ft 466 kts
2026-05-07 00:09 5.39091 104.07957 34514 ft 465 kts
2026-05-07 00:09 5.42329 104.08059 34633 ft 465 kts
2026-05-07 00:09 5.45563 104.08164 34783 ft 464 kts
2026-05-07 00:10 5.52025 104.08382 34852 ft 464 kts
2026-05-07 00:10 5.58454 104.08594 34852 ft 466 kts
2026-05-07 00:11 5.64934 104.08799 34852 ft 466 kts
2026-05-07 00:11 5.71418 104.09004 34852 ft 466 kts
2026-05-07 00:12 5.77904 104.09217 34854 ft 466 kts
2026-05-07 00:12 5.84396 104.09429 34859 ft 467 kts
2026-05-07 00:13 5.90899 104.09633 34866 ft 467 kts
2026-05-07 00:13 5.97406 104.09840 34866 ft 468 kts
2026-05-07 00:14 6.03921 104.10052 34867 ft 468 kts
2026-05-07 00:14 6.10433 104.10262 34866 ft 468 kts
2026-05-07 00:15 6.16950 104.10474 34868 ft 469 kts
2026-05-07 00:15 6.23470 104.10685 34872 ft 469 kts
2026-05-07 00:16 6.29990 104.10892 34873 ft 469 kts
2026-05-07 00:16 6.36514 104.11101 34875 ft 469 kts
2026-05-07 00:17 6.43037 104.11321 34875 ft 469 kts
2026-05-07 00:17 6.49519 104.11532 34875 ft 469 kts
2026-05-07 00:18 6.56051 104.11741 34873 ft 469 kts
2026-05-07 00:18 6.62576 104.11952 34874 ft 469 kts
2026-05-07 00:19 6.69095 104.12160 34872 ft 469 kts
2026-05-07 00:19 6.75628 104.12369 34872 ft 469 kts
2026-05-07 00:20 6.82111 104.12578 34873 ft 469 kts
2026-05-07 00:20 6.88645 104.12797 34875 ft 469 kts
2026-05-07 00:21 6.95171 104.13010 34876 ft 469 kts
2026-05-07 00:21 7.00603 104.13165 34874 ft 470 kts
2026-05-07 00:22 7.07144 104.12986 34874 ft 471 kts 357°
2026-05-07 00:22 7.13682 104.12522 34874 ft 471 kts 356°
2026-05-07 00:23 7.20220 104.12083 34879 ft 471 kts 358°
2026-05-07 00:23 7.26764 104.12017 34874 ft 469 kts
2026-05-07 00:24 7.33195 104.13112 34874 ft 469 kts 11°
2026-05-07 00:24 7.39637 104.14191 34872 ft 469 kts
2026-05-07 00:25 7.46087 104.15246 34877 ft 469 kts 10°
2026-05-07 00:25 7.52531 104.16311 34880 ft 469 kts 10°
2026-05-07 00:26 7.58991 104.17390 34879 ft 469 kts 10°
2026-05-07 00:26 7.65398 104.18467 34881 ft 469 kts
2026-05-07 00:27 7.71857 104.19543 34879 ft 469 kts 10°
2026-05-07 00:27 7.78309 104.20617 34878 ft 469 kts 10°
2026-05-07 00:28 7.84750 104.21693 34880 ft 469 kts 10°
2026-05-07 00:28 7.91205 104.22775 34878 ft 470 kts 10°
2026-05-07 00:29 7.97653 104.23852 34878 ft 470 kts 10°
2026-05-07 00:30 8.10556 104.26014 34881 ft 470 kts
2026-05-07 00:30 8.16966 104.27084 34878 ft 470 kts
2026-05-07 00:31 8.23416 104.28166 34879 ft 469 kts 10°
2026-05-07 00:31 8.29854 104.29243 34881 ft 469 kts
2026-05-07 00:32 8.36302 104.30321 34879 ft 469 kts
2026-05-07 00:32 8.42746 104.31401 34882 ft 469 kts 10°
2026-05-07 00:33 8.49186 104.32486 34883 ft 469 kts
2026-05-07 00:33 8.55642 104.33562 34882 ft 470 kts
2026-05-07 00:34 8.62051 104.34636 34882 ft 470 kts
2026-05-07 00:34 8.68501 104.35726 34884 ft 470 kts
2026-05-07 00:35 8.74956 104.36814 34883 ft 470 kts
2026-05-07 00:35 8.81412 104.37902 34887 ft 470 kts
2026-05-07 00:36 8.87872 104.38984 34885 ft 471 kts
2026-05-07 00:36 8.94342 104.40066 34886 ft 471 kts
2026-05-07 00:37 9.00811 104.41150 34888 ft 471 kts
2026-05-07 00:37 9.07281 104.42243 34889 ft 471 kts
2026-05-07 00:38 9.13755 104.43334 34893 ft 471 kts
2026-05-07 00:38 9.20192 104.44420 34894 ft 471 kts
2026-05-07 00:39 9.26659 104.45508 34898 ft 471 kts
2026-05-07 00:39 9.33121 104.46600 34897 ft 470 kts
2026-05-07 00:40 9.39578 104.47688 34897 ft 470 kts
2026-05-07 00:40 9.46029 104.48778 34897 ft 470 kts
2026-05-07 00:41 9.52485 104.49869 34896 ft 470 kts
2026-05-07 00:41 9.58925 104.50954 34740 ft 468 kts 10°
2026-05-07 00:42 9.62141 104.51493 34110 ft 470 kts 10°
2026-05-07 00:42 9.65378 104.52038 33211 ft 474 kts
2026-05-07 00:42 9.68640 104.52589 32361 ft 476 kts 10°
2026-05-07 00:42 9.71911 104.53141 31488 ft 478 kts
2026-05-07 00:43 9.75204 104.53698 30617 ft 481 kts
2026-05-07 00:43 9.78482 104.54253 29633 ft 486 kts
2026-05-07 00:43 9.81850 104.54822 29048 ft 479 kts
2026-05-07 00:43 9.85072 104.55366 28470 ft 473 kts
2026-05-07 00:44 9.88306 104.55912 27868 ft 469 kts
2026-05-07 00:44 9.91507 104.56453 27272 ft 464 kts
2026-05-07 00:44 9.94680 104.56988 26679 ft 460 kts
2026-05-07 00:44 9.97819 104.57521 26100 ft 455 kts
2026-05-07 00:45 10.00926 104.58049 25523 ft 451 kts
2026-05-07 00:45 10.04012 104.58570 24950 ft 447 kts 10°
2026-05-07 00:45 10.07064 104.59083 24382 ft 443 kts
2026-05-07 00:45 10.10090 104.59607 23819 ft 439 kts 10°
2026-05-07 00:46 10.13090 104.60143 23228 ft 435 kts 10°
2026-05-07 00:46 10.16047 104.60681 22658 ft 429 kts 10°
2026-05-07 00:46 10.18966 104.61215 22144 ft 422 kts 11°
2026-05-07 00:46 10.21838 104.61737 21634 ft 416 kts 11°
2026-05-07 00:47 10.24670 104.62245 21157 ft 410 kts 11°
2026-05-07 00:47 10.27461 104.62747 20678 ft 405 kts 11°
2026-05-07 00:47 10.30220 104.63242 20208 ft 400 kts 11°
2026-05-07 00:47 10.32936 104.63731 19747 ft 394 kts 11°
2026-05-07 00:48 10.35625 104.64216 19283 ft 390 kts 11°
2026-05-07 00:48 10.38282 104.64694 18828 ft 386 kts 11°
2026-05-07 00:48 10.40914 104.65165 18355 ft 382 kts 11°
2026-05-07 00:48 10.43528 104.65633 17847 ft 379 kts 11°
2026-05-07 00:49 10.46105 104.66096 17358 ft 373 kts 11°
2026-05-07 00:49 10.48646 104.66554 16889 ft 368 kts 11°
2026-05-07 00:49 10.51159 104.67006 16407 ft 364 kts 11°
2026-05-07 00:49 10.53654 104.67376 15939 ft 361 kts
2026-05-07 00:50 10.56167 104.67336 15391 ft 367 kts 357°
2026-05-07 00:50 10.58715 104.67142 14807 ft 372 kts 357°
2026-05-07 00:50 10.61299 104.66945 14221 ft 371 kts 357°
2026-05-07 00:50 10.63867 104.66751 13639 ft 370 kts 358°
2026-05-07 00:51 10.66431 104.66562 13020 ft 368 kts 358°
2026-05-07 00:51 10.68977 104.66373 12441 ft 364 kts 358°
2026-05-07 00:51 10.71501 104.66185 11863 ft 361 kts 358°
2026-05-07 00:51 10.74002 104.65996 11308 ft 359 kts 358°
2026-05-07 00:52 10.76482 104.65808 10754 ft 356 kts 358°
2026-05-07 00:52 10.78924 104.65623 10512 ft 344 kts 358°
2026-05-07 00:52 10.81256 104.65446 10393 ft 328 kts 358°
2026-05-07 00:52 10.83486 104.65278 10277 ft 315 kts 358°
2026-05-07 00:53 10.85628 104.65117 10119 ft 303 kts 358°
2026-05-07 00:53 10.87678 104.64966 9901 ft 296 kts 358°
2026-05-07 00:53 10.89729 104.64816 9812 ft 296 kts 359°
2026-05-07 00:53 10.91791 104.64667 9396 ft 297 kts 359°
2026-05-07 00:54 10.93848 104.64516 8974 ft 296 kts 359°
2026-05-07 00:54 10.95901 104.64360 8547 ft 296 kts 358°
2026-05-07 00:54 10.97952 104.64203 8160 ft 294 kts 359°
2026-05-07 00:54 10.99989 104.64048 7753 ft 293 kts 359°
2026-05-07 00:55 11.02008 104.63897 7338 ft 291 kts 359°
2026-05-07 00:55 11.04022 104.63749 6873 ft 289 kts 359°
2026-05-07 00:55 11.06023 104.63600 6456 ft 286 kts 359°
2026-05-07 00:55 11.07997 104.63539 6031 ft 280 kts
2026-05-07 00:56 11.09847 104.64038 5626 ft 271 kts 28°
2026-05-07 00:56 11.11405 104.65081 5213 ft 267 kts 46°
2026-05-07 00:56 11.12674 104.66443 4933 ft 261 kts 50°
2026-05-07 00:56 11.13867 104.67757 4853 ft 245 kts 49°
2026-05-07 00:57 11.15005 104.69010 4756 ft 239 kts 50°
2026-05-07 00:57 11.16115 104.70230 4671 ft 228 kts 49°
2026-05-07 00:57 11.17173 104.71394 4551 ft 222 kts 50°
2026-05-07 00:57 11.18203 104.72528 4462 ft 221 kts 50°
2026-05-07 00:58 11.19260 104.73691 4268 ft 220 kts 49°
2026-05-07 00:58 11.20297 104.74831 4000 ft 219 kts 49°
2026-05-07 00:58 11.21329 104.75967 3724 ft 218 kts 49°
2026-05-07 00:58 11.22362 104.77103 3437 ft 218 kts 50°
2026-05-07 00:59 11.24309 104.79244 2922 ft 196 kts 50°
2026-05-07 00:59 11.25216 104.80243 2673 ft 189 kts 50°
2026-05-07 00:59 11.26101 104.81218 2427 ft 184 kts 51°
2026-05-07 01:00 11.26953 104.82156 2199 ft 176 kts 51°
2026-05-07 01:00 11.27760 104.83043 1991 ft 166 kts 52°
2026-05-07 01:00 11.28536 104.83899 1769 ft 161 kts 51°
2026-05-07 01:00 11.29288 104.84727 1570 ft 157 kts 51°
2026-05-07 01:01 11.30021 104.85535 1370 ft 152 kts 50°
2026-05-07 01:01 11.30739 104.86327 1163 ft 151 kts 51°
2026-05-07 01:01 11.31452 104.87114 978 ft 152 kts 50°
2026-05-07 01:01 11.32160 104.87903 804 ft 151 kts 51°
2026-05-07 01:02 11.32860 104.88674 616 ft 151 kts 51°
2026-05-07 01:02 11.33582 104.89470 424 ft 152 kts 50°
2026-05-07 01:02 11.34300 104.90262 228 ft 152 kts 49°
2026-05-07 01:02 11.35021 104.91045 56 ft 151 kts 50°
2026-05-07 01:03 11.35663 104.91768 30 ft 121 kts 47°
2026-05-07 01:03 11.36124 104.92268 30 ft 72 kts 48°
2026-05-07 01:03 11.36327 104.92497 31 ft 15 kts 69°
2026-05-07 01:03 11.36313 104.92592 32 ft 15 kts 83°
2026-05-07 01:04 11.36337 104.92706 32 ft 17 kts 76°
2026-05-07 01:04 11.36375 104.92824 32 ft 18 kts 57°
2026-05-07 01:04 11.36452 104.92915 32 ft 13 kts 58°
2026-05-07 01:04 11.36427 104.92992 31 ft 13 kts 137°
2026-05-07 01:05 11.36357 104.93057 31 ft 14 kts 138°
2026-05-07 01:05 11.36275 104.93113 31 ft 14 kts 171°
2026-05-07 01:05 11.36176 104.93098 31 ft 11 kts 191°
2026-05-07 01:05 11.36141 104.93117 31 ft 6 kts 109°
2026-05-07 01:06 11.36133 104.93145 23 ft 7 kts 108°
2026-05-07 01:06 11.36125 104.93171 29 ft 1 kts 108°
2026-05-07 01:06 11.36124 104.93172 30 ft 0 kts 108°